Regional Weather Roundup
Issued by NWS Goodland, KS

Home | Current Version | Previous Version | Graphics & Text | Print | Product List | Glossary On
Versions: 1 2 3 4 5 6 7 8 9 10 11 12 13 14 15 16 17 18 19 20 21 22 23 24 25 26 27 28 29 30 31 32 33 34 35 36 37 38 39 40 41 42 43 44 45 46 47 48 49 50
000
ASUS43 KGLD 210559
RWRGLD

GOODLAND FORECAST AREA HOURLY WEATHER ROUNDUP
NATIONAL WEATHER SERVICE GOODLAND KS
1100 PM MST FRI JAN 20 2017

...OFFICIAL OBSERVATIONS...

CITY           SKY/WX    TMP DP  RH WIND       PRES   REMARKS
GOODLAND KS    CLEAR     32  30  92 W10       29.46S
HILL CITY KS   CLOUDY    38  36  92 W9        29.45R
IMPERIAL NEB   PTCLDY    35  32  88 N9        29.42F
MCCOOK NEB     MOCLDY    35  33  92 NW8       29.43R
AKRON CO       CLEAR     27  22  81 SW8       29.44S
BURLINGTON CO  CLEAR     30  28  92 W7        29.48R
LIMON CO       CLEAR     18  17  96 N6        29.45F
$$

...UNOFFICIAL OBSERVATIONS...

CITY           SKY/WX    TMP DP  RH WIND       PRES   REMARKS
LENORA KS        N/A     37  32  82 W8          N/A
NORTON KS      CLOUDY    36  32  87 SW7       29.42R
SHARON SPRINGS   N/A     30  29  95 SW6         N/A
TRENTON NEB      N/A     34  32  92 NW7         N/A
KIT CARSON CO    N/A     28  26  90 CALM        N/A
YUMA CO        FAIR      27  21  80 SW8       29.45S
$$




USA.gov is the U.S. government's official web portal to all federal, state and local government web resources and services.